Location: Cheyres
(46.8153°N, 6.7877°E)
Time: 13:22:43
(UTC+00:00)

GPS 2-04 Rocket1 - Pass Details

Date: 11 May 2021
Orbit: 415 x 540 km, 35.6° (Epoch: 19 June)

Event Time Altitude Azimuth Distance (km) Brightness Sun altitude
Rises 20:24:00 0° 233° (SW) 2,672 6.4 -12.9°
Reaches altitude 10° 20:26:58 10° 212° (SSW) 1,768 5.3 -13.2°
Enters shadow 20:29:21 16° 176° (S) 1,425 4.5 -13.5°
